Hourly Data Report for October 25, 2013

All times are specified in Local Standard Time (LST). Add 1 hour to adjust for Daylight Saving Time where and when it is observed.

QIKIQTARJUAQ A
NUNAVUT

67°32'48.000" N
64°01'54.000" W
5.50 m
2400577
YVM

Download Data

Hourly Data (October 2013)
Hourly Data Report for October 25, 2013
Temp Definition
°C
Dew Point Temp Definition
°C
Rel Hum Definition
%
Wind Dir Definition
10's deg

Wind Spd Definition
km/h
Visibility Definition
km
Stn Press Definition
kPa
Hmdx Definition


Wind Chill Definition


Weather Definition


TIME
00:00 Legend Double Dagger -9.2 -11.1 86 15 9 16.1 100.39   -14 LegendNANA
01:00 Legend Double Dagger -8.6 -10.5 86 16 5 16.1 100.38   -11 LegendNANA
02:00 Legend Double Dagger -8.3 -10.2 86 16 5 16.1 100.37   -11 LegendNANA
03:00 Legend Double Dagger -9.1 -11.1 86 19 9 16.1 100.34   -14 LegendNANA
04:00 Legend Double Dagger -8.1 -9.6 89 18 17 16.1 100.31   -15 LegendNANA
05:00 Legend Double Dagger -7.7 -10.1 83 18 17 16.1 100.29   -14 LegendNANA
06:00 Legend Double Dagger -8.7 -11.3 82 19 11 16.1 100.29   -14 LegendNANA
07:00 Legend Double Dagger -9.6 -12.0 83 19 13 16.1 100.27   -16 LegendNANA
08:00 Legend Double Dagger -9.5 -12.1 82 14 8 16.1 100.24   -14 LegendNANA
09:00 Legend Double Dagger -10.0 -12.4 83 13 9 16.1 100.23   -15 LegendNANA
10:00 Legend Double Dagger -8.7 -12.2 76 15 8 16.1 100.21   -13 LegendNANA
11:00 Legend Double Dagger -8.2 -11.0 81 19 11 16.1 100.21   -13 LegendNANA
12:00 Legend Double Dagger -8.0 -10.7 81 16 8 16.1 100.21   -12 LegendNANA
13:00 Legend Double Dagger -6.7 -9.6 80 19 9 16.1 100.21   -11 LegendNANA
14:00 Legend Double Dagger -8.3 -10.6 84 15 8 16.1 100.22   -12 LegendNANA
15:00 Legend Double Dagger -9.2 -11.3 85 14 9 16.1 100.21   -14 LegendNANA
16:00 Legend Double Dagger -9.6 -11.5 86 14 9 16.1 100.22   -14 LegendNANA
17:00 Legend Double Dagger -9.1 -11.3 84 17 11 16.1 100.22   -15 LegendNANA
18:00 Legend Double Dagger -9.7 -12.1 83 15 9 16.1 100.21   -15 LegendNANA
19:00 Legend Double Dagger -10.0 -12.2 84 14 8 16.1 100.20   -14 LegendNANA
20:00 Legend Double Dagger -9.8 -12.4 82 15 9 16.1 100.19   -15 LegendNANA
21:00 Legend Double Dagger -10.0 -12.8 80 16 9 16.1 100.17   -15 LegendNANA
22:00 Legend Double Dagger -10.0 -12.5 82 18 9 16.1 100.13   -15 LegendNANA
23:00 Legend Double Dagger -10.5 -13.0 82 17 9 16.1 100.12   -15 LegendNANA

Notes on Data Quality.

Legend

  • E = Estimated
  • M = Missing
  • NA = Not Available
  • ‡ = Partner data that is not subject to review by the National Climate Archives
Date modified: